This demonstration page uses our WeatherBlox Daily Observations layout. Learn more.

38.89511, -77.03637

Hourly Observations for January 3, 2015

Temp ( °F °C ) Dew Point ( °F °C ) Humidity (%) Winds ( mph kmh ) Pressure ( in mb ) Visibility ( mi km ) Precip ( " mm )
12:52 am 00:52 Partly Cloudy 36 2 27 -3 70 70 N 3 6 30.45 1031 10 16.09344 0 0
1:52 am 01:52 Partly Cloudy 36 2 28 -2 75 75 Calm 30.45 1031 10 16.09344 0 0
2:52 am 02:52 Cloudy 36 2 27 -3 70 70 Calm 30.5 1033 10 16.09344 0 0
3:07 am 03:07 Cloudy 36 2 28 -2 75 75 NE 3 6 30.48 1032 10 16.09344 0 0
3:52 am 03:52 Cloudy 37 3 27 -3 65 65 NNE 5 7 30.48 1032 10 16.09344 0 0
4:52 am 04:52 Cloudy 37 3 25 -4 60 60 ENE 6 9 30.5 1033 10 16.09344 0.001 0.001
5:52 am 05:52 Cloudy 37 3 27 -3 65 65 NE 6 9 30.48 1032 10 16.09344 0 0
6:52 am 06:52 Cloudy with Light Rain 39 4 28 -2 65 65 NE 6 9 30.5 1033 10 16.09344 0.001 0.001
7:52 am 07:52 Cloudy with Light Rain 39 4 28 -2 65 65 Calm 30.53 1034 8 12.874752 0.04 1.016
8:52 am 08:52 Cloudy with Light Rain 39 4 32 0 75 75 Calm 30.53 1034 8 12.874752 0.05 1.27
9:52 am 09:52 Cloudy 39 4 34 1 81 81 NNE 6 9 30.5 1033 10 16.09344 0.01 0.254
10:52 am 10:52 Cloudy 41 5 34 1 76 76 Calm 30.5 1033 10 16.09344 0 0
11:52 am 11:52 Cloudy with Rain 39 4 34 1 81 81 E 5 7 30.45 1031 2.5 4.02336 0.02 0.508
12:35 pm 12:35 Cloudy with Light Rain 41 5 34 1 76 76 Calm 30.42 1030 6 9.656064 0.06 1.524
12:52 pm 12:52 Cloudy with Light Rain 41 5 34 1 76 76 ENE 3 6 30.42 1030 3 4.828032 0.1 2.54
1:03 pm 13:03 Cloudy 41 5 36 2 81 81 Calm 30.42 1030 9 14.484096 0 0
1:31 pm 13:31 Cloudy 41 5 36 2 81 81 Calm 30.39 1029 7 11.265408 0.001 0.001
1:52 pm 13:52 Cloudy with Light Drizzle 41 5 36 2 81 81 NNE 5 7 30.39 1029 6 9.656064 0.001 0.001
2:40 pm 14:40 Cloudy with Light Drizzle 41 5 36 2 81 81 Calm 30.36 1028 2.5 4.02336 0 0
2:52 pm 14:52 Cloudy with Light Rain 41 5 36 2 81 81 N 3 6 30.36 1028 1.75 2.816352 0.001 0.001
2:58 pm 14:58 Cloudy with Light Drizzle 41 5 36 2 81 81 NNE 3 6 30.36 1028 1.75 2.816352 0 0
3:04 pm 15:04 Cloudy with Light Drizzle 41 5 36 2 81 81 N 3 6 30.36 1028 1.5 2.414016 0 0
3:23 pm 15:23 Cloudy with Light Drizzle 41 5 37 3 87 87 NE 7 11 30.33 1027 1 1.609344 0.001 0.001
3:52 pm 15:52 Cloudy with Light Drizzle 41 5 37 3 87 87 Calm 30.36 1028 1 1.609344 0.01 0.254
4:04 pm 16:04 Cloudy with Light Rain 41 5 37 3 87 87 N 3 6 30.33 1027 1 1.609344 0 0
4:13 pm 16:13 Cloudy with Light Rain 41 5 37 3 87 87 N 3 6 30.33 1027 0.75 1.207008 0.001 0.001
4:41 pm 16:41 Cloudy with Light Rain 41 5 37 3 87 87 NE 3 6 30.33 1027 0.5 0.804672 0.01 0.254
4:52 pm 16:52 Cloudy with Light Drizzle 41 5 37 3 87 87 NE 5 7 30.33 1027 0.75 1.207008 0.01 0.254
4:57 pm 16:57 Cloudy with Light Drizzle 41 5 37 3 87 87 ENE 6 9 30.33 1027 1 1.609344 0.001 0.001
5:22 pm 17:22 Cloudy with Light Drizzle 41 5 37 3 87 87 NE 6 9 30.3 1026 1.5 2.414016 0 0
5:38 pm 17:38 Cloudy with Light Drizzle 41 5 37 3 87 87 NNE 5 7 30.3 1026 2 3.218688 0 0
5:52 pm 17:52 Cloudy with Light Drizzle 41 5 37 3 87 87 NE 5 7 30.27 1025 2.5 4.02336 0.001 0.001
6:10 pm 18:10 Cloudy with Light Drizzle 39 4 36 2 87 87 ENE 6 9 30.27 1025 3 4.828032 0 0
6:17 pm 18:17 Cloudy with Light Drizzle 39 4 36 2 87 87 NE 8 13 30.27 1025 2.5 4.02336 0.001 0.001
6:28 pm 18:28 Cloudy with Light Drizzle 39 4 36 2 87 87 NNE 6 9 30.27 1025 2.5 4.02336 0 0
6:52 pm 18:52 Cloudy with Mist and Fog 41 5 37 3 87 87 NE 6 9 30.24 1024 2.5 4.02336 0.001 0.001
7:00 pm 19:00 Cloudy with Mist and Fog 39 4 37 3 93 93 Calm 30.24 1024 2.5 4.02336 0 0
7:14 pm 19:14 Cloudy with Mist and Fog 41 5 37 3 87 87 N 3 6 30.24 1024 3 4.828032 0 0
7:23 pm 19:23 Cloudy with Mist and Fog 41 5 36 2 81 81 ENE 3 6 30.24 1024 2 3.218688 0.001 0.001
7:32 pm 19:32 Cloudy with Light Drizzle 41 5 37 3 87 87 N 6 9 30.24 1024 1.75 2.816352 0 0
7:41 pm 19:41 Cloudy with Light Drizzle 41 5 37 3 87 87 N 6 9 30.24 1024 2.5 4.02336 0.001 0.001
7:52 pm 19:52 Cloudy with Light Rain 41 5 37 3 87 87 N 3 6 30.24 1024 2.5 4.02336 0.001 0.001
8:17 pm 20:17 Cloudy with Rain 41 5 37 3 87 87 Calm 30.21 1023 1.5 2.414016 0.03 0.762
8:40 pm 20:40 Cloudy with Rain 41 5 37 3 87 87 N 6 9 30.21 1023 2 3.218688 0 0
8:52 pm 20:52 Cloudy with Light Rain 41 5 37 3 87 87 N 7 11 30.18 1022 2.5 4.02336 0.11 2.794
8:59 pm 20:59 Cloudy with Light Rain 41 5 37 3 87 87 N 6 9 30.18 1022 3 4.828032 0.01 0.254
9:16 pm 21:16 Cloudy with Rain 41 5 37 3 87 87 N 3 6 30.18 1022 2.5 4.02336 0 0
9:43 pm 21:43 Cloudy with Light Rain 43 6 37 3 81 81 Calm 30.18 1022 2.5 4.02336 0.12 3.048
9:52 pm 21:52 Cloudy with Light Rain 43 6 37 3 81 81 Calm 30.18 1022 2.5 4.02336 0.13 3.302
10:01 pm 22:01 Cloudy with Light Rain 41 5 37 3 87 87 ESE 6 9 30.15 1021 2.5 4.02336 0.01 0.254
10:10 pm 22:10 Cloudy with Light Rain 41 5 37 3 87 87 WSW 6 9 30.18 1022 3 4.828032 0 0
10:13 pm 22:13 Cloudy with Light Rain 41 5 37 3 87 87 WSW 3 6 30.15 1021 3 4.828032 0.01 0.254
10:24 pm 22:24 Cloudy with Light Rain 41 5 37 3 87 87 S 3 6 30.15 1021 4 6.437376 0 0
10:52 pm 22:52 Cloudy with Light Rain 43 6 37 3 81 81 W 5 7 30.15 1021 4 6.437376 0.01 0.254
11:03 pm 23:03 Cloudy with Light Drizzle 43 6 37 3 81 81 WNW 3 6 30.15 1021 6 9.656064 0 0
11:18 pm 23:18 Cloudy with Light Drizzle 43 6 37 3 81 81 SW 3 6 30.15 1021 6 9.656064 0 0
11:52 pm 23:52 Cloudy with Light Drizzle 43 6 37 3 81 81 S 3 6 30.12 1020 6 9.656064 0.01 0.254

Powered by AerisWeather